Time,TemperatureF,DewpointF,PressureIn,WindDirection,WindDirectionDegrees,WindSpeedMPH,WindSpeedGustMPH,Humidity,HourlyPrecipIn,Conditions,Clouds,dailyrainin,SoftwareType,DateUTC
2013-03-08 00:02:00,41.5,10.8,30.27,West,270,0.0,0.0,28,0.00,CLR,,0.00,WeatherDisplay:10.37,2013-03-08 06:02:00,
2013-03-08 00:07:00,41.5,10.8,30.27,West,270,0.0,0.0,28,0.00,CLR,,0.00,WeatherDisplay:10.37,2013-03-08 06:07:00,
2013-03-08 00:12:00,41.5,10.8,30.27,West,270,0.0,0.0,28,0.00,CLR,,0.00,WeatherDisplay:10.37,2013-03-08 06:12:00,
2013-03-08 00:17:00,41.5,10.8,30.27,West,270,0.0,0.0,28,0.00,CLR,,0.00,WeatherDisplay:10.37,2013-03-08 06:17:00,
2013-03-08 00:22:00,41.5,10.8,30.27,West,270,0.0,0.0,28,0.00,CLR,,0.00,WeatherDisplay:10.37,2013-03-08 06:22:00,
2013-03-08 00:27:00,41.5,10.8,30.27,West,270,0.0,0.0,28,0.00,CLR,,0.00,WeatherDisplay:10.37,2013-03-08 06:27:00,
2013-03-08 00:32:00,41.5,10.8,30.27,West,270,0.0,0.0,28,0.00,CLR,,0.00,WeatherDisplay:10.37,2013-03-08 06:32:00,
2013-03-08 00:37:00,41.5,10.8,30.27,West,270,0.0,0.0,28,0.00,CLR,,0.00,WeatherDisplay:10.37,2013-03-08 06:37:00,
2013-03-08 00:42:00,41.7,11.0,30.27,West,270,0.0,0.0,28,0.00,CLR,,0.00,WeatherDisplay:10.37,2013-03-08 06:42:00,
2013-03-08 00:47:00,41.7,11.7,30.27,West,270,0.0,0.0,29,0.00,CLR,,0.00,WeatherDisplay:10.37,2013-03-08 06:47:00,
2013-03-08 00:52:00,41.5,11.6,30.27,West,270,0.0,0.0,29,0.00,CLR,,0.00,WeatherDisplay:10.37,2013-03-08 06:52:00,
2013-03-08 00:57:00,41.4,11.4,30.27,West,270,0.0,0.0,29,0.00,CLR,,0.00,WeatherDisplay:10.37,2013-03-08 06:57:00,
2013-03-08 01:02:00,41.4,11.4,30.27,West,270,0.0,0.0,29,0.00,CLR,,0.00,WeatherDisplay:10.37,2013-03-08 07:02:00,
2013-03-08 01:07:00,41.0,11.1,30.27,West,270,0.0,0.0,29,0.00,CLR,,0.00,WeatherDisplay:10.37,2013-03-08 07:07:00,
2013-03-08 01:12:00,40.6,10.8,30.27,West,270,0.0,0.0,29,0.00,CLR,,0.00,WeatherDisplay:10.37,2013-03-08 07:12:00,
2013-03-08 01:17:00,40.6,10.8,30.27,West,270,0.0,0.0,29,0.00,CLR,,0.00,WeatherDisplay:10.37,2013-03-08 07:17:00,
2013-03-08 01:22:00,40.6,10.8,30.27,West,270,0.0,0.0,29,0.00,CLR,,0.00,WeatherDisplay:10.37,2013-03-08 07:22:00,
2013-03-08 01:27:00,40.6,10.8,30.27,West,270,0.0,0.0,29,0.00,CLR,,0.00,WeatherDisplay:10.37,2013-03-08 07:27:00,
2013-03-08 01:32:00,40.5,10.7,30.27,West,270,0.0,0.0,29,0.00,CLR,,0.00,WeatherDisplay:10.37,2013-03-08 07:32:00,
2013-03-08 01:37:00,40.5,10.7,30.27,West,270,0.0,0.0,29,0.00,CLR,,0.00,WeatherDisplay:10.37,2013-03-08 07:37:00,
2013-03-08 01:42:00,40.3,10.5,30.27,West,270,0.0,0.0,29,0.00,CLR,,0.00,WeatherDisplay:10.37,2013-03-08 07:42:00,
2013-03-08 01:47:00,40.3,10.5,30.27,West,270,0.0,0.0,29,0.00,CLR,,0.00,WeatherDisplay:10.37,2013-03-08 07:47:00,
2013-03-08 01:52:00,40.3,10.5,30.27,West,270,0.0,0.0,29,0.00,CLR,,0.00,WeatherDisplay:10.37,2013-03-08 07:52:00,
2013-03-08 01:57:00,40.3,11.3,30.27,West,270,0.0,0.0,30,0.00,CLR,,0.00,WeatherDisplay:10.37,2013-03-08 07:57:00,
2013-03-08 02:02:00,40.1,11.1,30.27,West,270,0.0,0.0,30,0.00,CLR,,0.00,WeatherDisplay:10.37,2013-03-08 08:02:00,
2013-03-08 02:07:00,40.3,11.3,30.27,West,270,0.0,0.0,30,0.00,CLR,,0.00,WeatherDisplay:10.37,2013-03-08 08:07:00,
2013-03-08 02:12:00,40.3,11.3,30.27,West,270,0.0,0.0,30,0.00,CLR,,0.00,WeatherDisplay:10.37,2013-03-08 08:12:00,
2013-03-08 02:17:00,40.3,11.3,30.27,West,270,0.0,0.0,30,0.00,CLR,,0.00,WeatherDisplay:10.37,2013-03-08 08:17:00,
2013-03-08 02:22:00,40.3,11.3,30.27,West,270,0.0,0.0,30,0.00,CLR,,0.00,WeatherDisplay:10.37,2013-03-08 08:22:00,
2013-03-08 02:27:00,40.5,11.4,30.27,East,90,0.0,0.0,30,0.00,CLR,,0.00,WeatherDisplay:10.37,2013-03-08 08:27:00,
2013-03-08 02:32:00,40.3,11.3,30.27,East,90,0.0,0.0,30,0.00,CLR,,0.00,WeatherDisplay:10.37,2013-03-08 08:32:00,
2013-03-08 02:37:00,39.9,10.9,30.27,East,90,0.0,0.0,30,0.00,CLR,,0.00,WeatherDisplay:10.37,2013-03-08 08:37:00,
2013-03-08 02:42:00,39.7,10.8,30.27,East,90,0.0,0.0,30,0.00,CLR,,0.00,WeatherDisplay:10.37,2013-03-08 08:42:00,
2013-03-08 02:47:00,39.7,10.8,30.24,East,90,0.0,0.0,30,0.00,CLR,,0.00,WeatherDisplay:10.37,2013-03-08 08:47:00,
2013-03-08 02:52:00,39.6,10.6,30.24,East,90,0.0,0.0,30,0.00,CLR,,0.00,WeatherDisplay:10.37,2013-03-08 08:52:00,
2013-03-08 02:57:00,39.6,10.6,30.24,East,90,0.0,0.0,30,0.00,CLR,,0.00,WeatherDisplay:10.37,2013-03-08 08:57:00,
2013-03-08 03:02:00,39.4,10.5,30.24,East,90,0.0,0.0,30,0.00,CLR,,0.00,WeatherDisplay:10.37,2013-03-08 09:02:00,
2013-03-08 03:07:00,39.4,10.5,30.24,East,90,0.0,0.0,30,0.00,CLR,,0.00,WeatherDisplay:10.37,2013-03-08 09:07:00,
2013-03-08 03:12:00,39.4,10.5,30.24,East,90,0.0,0.0,30,0.00,CLR,,0.00,WeatherDisplay:10.37,2013-03-08 09:12:00,
2013-03-08 03:17:00,39.4,10.5,30.24,East,90,0.0,0.0,30,0.00,CLR,,0.00,WeatherDisplay:10.37,2013-03-08 09:17:00,
2013-03-08 03:22:00,39.4,10.5,30.24,East,90,0.0,0.0,30,0.00,CLR,,0.00,WeatherDisplay:10.37,2013-03-08 09:22:00,
2013-03-08 03:27:00,39.0,10.9,30.24,East,90,0.0,0.0,31,0.00,CLR,,0.00,WeatherDisplay:10.37,2013-03-08 09:27:00,
2013-03-08 03:32:00,39.0,10.9,30.24,East,90,0.0,0.0,31,0.00,CLR,,0.00,WeatherDisplay:10.37,2013-03-08 09:32:00,
2013-03-08 03:37:00,38.8,10.7,30.24,East,90,0.0,0.0,31,0.00,CLR,,0.00,WeatherDisplay:10.37,2013-03-08 09:37:00,
2013-03-08 03:42:00,39.0,10.9,30.24,East,90,0.0,0.0,31,0.00,CLR,,0.00,WeatherDisplay:10.37,2013-03-08 09:42:00,
2013-03-08 03:47:00,39.2,10.3,30.21,East,90,0.0,0.0,30,0.00,CLR,,0.00,WeatherDisplay:10.37,2013-03-08 09:47:00,
2013-03-08 03:52:00,39.2,10.3,30.21,East,90,0.0,0.0,30,0.00,CLR,,0.00,WeatherDisplay:10.37,2013-03-08 09:52:00,
2013-03-08 03:57:00,39.2,10.3,30.21,East,90,0.0,0.0,30,0.00,CLR,,0.00,WeatherDisplay:10.37,2013-03-08 09:57:00,
2013-03-08 04:02:00,39.4,11.2,30.24,North,0,0.0,0.0,31,0.00,CLR,,0.00,WeatherDisplay:10.37,2013-03-08 10:02:00,
2013-03-08 04:07:00,39.2,11.0,30.24,North,0,0.0,0.0,31,0.00,CLR,,0.00,WeatherDisplay:10.37,2013-03-08 10:07:00,
2013-03-08 04:12:00,39.2,11.0,30.24,East,90,0.0,0.0,31,0.00,CLR,,0.00,WeatherDisplay:10.37,2013-03-08 10:12:00,
2013-03-08 04:17:00,39.4,11.2,30.24,East,90,0.0,0.0,31,0.00,CLR,,0.00,WeatherDisplay:10.37,2013-03-08 10:17:00,
2013-03-08 04:22:00,39.4,11.2,30.24,East,90,0.0,0.0,31,0.00,CLR,,0.00,WeatherDisplay:10.37,2013-03-08 10:22:00,
2013-03-08 04:27:00,39.4,11.2,30.24,East,90,0.0,0.0,31,0.00,CLR,,0.00,WeatherDisplay:10.37,2013-03-08 10:27:00,
2013-03-08 04:33:00,39.6,11.4,30.24,East,90,0.0,0.0,31,0.00,CLR,,0.00,WeatherDisplay:10.37,2013-03-08 10:33:00,
2013-03-08 04:38:00,39.6,11.4,30.24,East,90,0.0,0.0,31,0.00,CLR,,0.00,WeatherDisplay:10.37,2013-03-08 10:38:00,
2013-03-08 04:43:00,39.7,11.5,30.24,East,90,0.0,0.0,31,0.00,CLR,,0.00,WeatherDisplay:10.37,2013-03-08 10:43:00,
2013-03-08 04:48:00,39.7,11.5,30.27,East,90,0.0,0.0,31,0.00,CLR,,0.00,WeatherDisplay:10.37,2013-03-08 10:48:00,
2013-03-08 04:53:00,39.7,11.5,30.27,East,90,0.0,0.0,31,0.00,CLR,,0.00,WeatherDisplay:10.37,2013-03-08 10:53:00,
2013-03-08 04:58:00,39.9,12.4,30.27,East,90,0.0,0.0,32,0.00,CLR,,0.00,WeatherDisplay:10.37,2013-03-08 10:58:00,
2013-03-08 05:03:00,39.9,11.7,30.24,East,90,0.0,0.0,31,0.00,CLR,,0.00,WeatherDisplay:10.37,2013-03-08 11:03:00,
2013-03-08 05:08:00,40.3,12.7,30.24,East,90,0.0,0.0,32,0.00,CLR,,0.00,WeatherDisplay:10.37,2013-03-08 11:08:00,
2013-03-08 05:13:00,40.3,12.7,30.24,East,90,0.0,0.0,32,0.00,CLR,,0.00,WeatherDisplay:10.37,2013-03-08 11:13:00,
2013-03-08 05:18:00,40.5,12.9,30.27,East,90,0.0,0.0,32,0.00,CLR,,0.00,WeatherDisplay:10.37,2013-03-08 11:18:00,
2013-03-08 05:23:00,40.8,13.2,30.27,East,90,0.0,0.0,32,0.00,CLR,,0.00,WeatherDisplay:10.37,2013-03-08 11:23:00,
2013-03-08 05:28:00,41.0,13.4,30.27,East,90,0.0,0.0,32,0.00,CLR,,0.00,WeatherDisplay:10.37,2013-03-08 11:28:00,
2013-03-08 05:33:00,41.0,13.4,30.27,East,90,0.0,0.0,32,0.00,CLR,,0.00,WeatherDisplay:10.37,2013-03-08 11:33:00,
2013-03-08 05:38:00,41.2,13.5,30.27,East,90,0.0,0.0,32,0.00,CLR,,0.00,WeatherDisplay:10.37,2013-03-08 11:38:00,
2013-03-08 05:43:00,41.0,13.4,30.27,East,90,0.0,0.0,32,0.00,CLR,,0.00,WeatherDisplay:10.37,2013-03-08 11:43:00,
2013-03-08 05:48:00,41.0,13.4,30.27,East,90,0.0,0.0,32,0.00,CLR,,0.00,WeatherDisplay:10.37,2013-03-08 11:48:00,
2013-03-08 05:53:00,41.0,13.4,30.27,East,90,0.0,0.0,32,0.00,CLR,,0.00,WeatherDisplay:10.37,2013-03-08 11:53:00,
2013-03-08 05:58:00,40.8,13.2,30.27,East,90,0.0,0.0,32,0.00,CLR,,0.00,WeatherDisplay:10.37,2013-03-08 11:58:00,
2013-03-08 06:03:00,41.0,13.4,30.24,East,90,0.0,0.0,32,0.00,CLR,,0.00,WeatherDisplay:10.37,2013-03-08 12:03:00,
2013-03-08 06:08:00,41.0,13.4,30.24,East,90,0.0,0.0,32,0.00,CLR,,0.00,WeatherDisplay:10.37,2013-03-08 12:08:00,
2013-03-08 06:13:00,41.0,13.4,30.24,East,90,0.0,0.0,32,0.00,CLR,,0.00,WeatherDisplay:10.37,2013-03-08 12:13:00,
2013-03-08 06:18:00,41.2,13.5,30.27,East,90,0.0,0.0,32,0.00,CLR,,0.00,WeatherDisplay:10.37,2013-03-08 12:18:00,
2013-03-08 06:23:00,41.2,13.5,30.27,East,90,0.0,0.0,32,0.00,CLR,,0.00,WeatherDisplay:10.37,2013-03-08 12:23:00,
2013-03-08 06:28:00,41.5,14.5,30.27,East,90,0.0,0.0,33,0.00,CLR,,0.00,WeatherDisplay:10.37,2013-03-08 12:28:00,
2013-03-08 06:33:00,42.3,15.9,30.27,East,90,0.0,0.0,34,0.00,CLR,,0.00,WeatherDisplay:10.37,2013-03-08 12:33:00,
2013-03-08 06:38:00,43.0,17.8,30.27,East,90,0.0,0.0,36,0.00,CLR,,0.00,WeatherDisplay:10.37,2013-03-08 12:38:00,
2013-03-08 06:43:00,43.7,19.7,30.27,East,90,0.0,0.0,38,0.00,CLR,,0.00,WeatherDisplay:10.37,2013-03-08 12:43:00,
2013-03-08 06:48:00,44.4,20.4,30.27,East,90,0.0,0.0,38,0.00,CLR,,0.00,WeatherDisplay:10.37,2013-03-08 12:48:00,
2013-03-08 06:53:00,45.0,20.2,30.27,East,90,0.0,0.0,37,0.00,CLR,,0.00,WeatherDisplay:10.37,2013-03-08 12:53:00,
2013-03-08 06:58:00,45.7,20.9,30.27,East,90,0.0,0.0,37,0.00,CLR,,0.00,WeatherDisplay:10.37,2013-03-08 12:58:00,
2013-03-08 07:03:00,46.0,21.2,30.27,East,90,0.0,0.0,37,0.00,CLR,,0.00,WeatherDisplay:10.37,2013-03-08 13:03:00,
2013-03-08 07:08:00,46.2,21.3,30.27,East,90,0.0,0.0,37,0.00,CLR,,0.00,WeatherDisplay:10.37,2013-03-08 13:08:00,
2013-03-08 07:13:00,46.6,21.7,30.27,East,90,0.0,0.0,37,0.00,CLR,,0.00,WeatherDisplay:10.37,2013-03-08 13:13:00,
2013-03-08 07:18:00,47.5,22.5,30.27,East,90,0.0,0.0,37,0.00,CLR,,0.00,WeatherDisplay:10.37,2013-03-08 13:18:00,
2013-03-08 07:23:00,48.4,23.3,30.27,East,90,0.0,0.0,37,0.00,CLR,,0.00,WeatherDisplay:10.37,2013-03-08 13:23:00,
2013-03-08 07:28:00,49.8,24.6,30.27,East,90,0.0,0.0,37,0.00,CLR,,0.00,WeatherDisplay:10.37,2013-03-08 13:28:00,
2013-03-08 07:33:00,51.1,26.3,30.27,East,90,0.0,0.0,38,0.00,CLR,,0.00,WeatherDisplay:10.37,2013-03-08 13:33:00,
2013-03-08 07:38:00,51.8,26.3,30.27,East,90,0.0,0.0,37,0.00,CLR,,0.00,WeatherDisplay:10.37,2013-03-08 13:38:00,
2013-03-08 07:43:00,52.7,27.1,30.27,East,90,0.0,0.0,37,0.00,CLR,,0.00,WeatherDisplay:10.37,2013-03-08 13:43:00,
2013-03-08 07:48:00,53.2,26.9,30.30,East,90,0.0,0.0,36,0.00,CLR,,0.00,WeatherDisplay:10.37,2013-03-08 13:48:00,
2013-03-08 07:53:00,53.6,27.3,30.30,East,90,0.0,0.0,36,0.00,CLR,,0.00,WeatherDisplay:10.37,2013-03-08 13:53:00,
2013-03-08 07:58:00,54.3,27.2,30.30,East,90,0.0,0.0,35,0.00,CLR,,0.00,WeatherDisplay:10.37,2013-03-08 13:58:00,
2013-03-08 08:03:00,55.4,27.5,30.30,East,90,0.0,0.0,34,0.00,CLR,,0.00,WeatherDisplay:10.37,2013-03-08 14:03:00,
2013-03-08 08:08:00,56.5,26.9,30.30,East,90,3.5,3.5,32,0.00,CLR,,0.00,WeatherDisplay:10.37,2013-03-08 14:08:00,
2013-03-08 08:13:00,57.7,26.5,30.30,ESE,112,5.8,5.8,30,0.00,CLR,,0.00,WeatherDisplay:10.37,2013-03-08 14:13:00,
2013-03-08 08:18:00,58.8,25.7,30.30,East,90,5.8,5.8,28,0.00,CLR,,0.00,WeatherDisplay:10.37,2013-03-08 14:18:00,
2013-03-08 08:23:00,59.0,23.2,30.30,ESE,112,5.8,5.8,25,0.00,CLR,,0.00,WeatherDisplay:10.37,2013-03-08 14:23:00,
2013-03-08 08:28:00,59.4,23.5,30.30,East,90,5.8,5.8,25,0.00,CLR,,0.00,WeatherDisplay:10.37,2013-03-08 14:28:00,
2013-03-08 08:33:00,59.5,23.6,30.30,ESE,112,5.8,6.0,25,0.00,CLR,,0.00,WeatherDisplay:10.37,2013-03-08 14:33:00,
2013-03-08 08:38:00,60.1,23.1,30.30,ESE,112,9.2,9.2,24,0.00,CLR,,0.00,WeatherDisplay:10.37,2013-03-08 14:38:00,
2013-03-08 08:43:00,60.6,23.6,30.30,ESE,112,4.6,6.2,24,0.00,CLR,,0.00,WeatherDisplay:10.37,2013-03-08 14:43:00,
2013-03-08 08:48:00,60.6,23.6,30.30,ESE,112,10.4,10.4,24,0.00,CLR,,0.00,WeatherDisplay:10.37,2013-03-08 14:48:00,
2013-03-08 08:53:00,61.0,23.9,30.30,ESE,112,9.2,9.2,24,0.00,CLR,,0.00,WeatherDisplay:10.37,2013-03-08 14:53:00,
2013-03-08 08:58:00,61.9,24.7,30.30,ESE,112,5.8,6.2,24,0.00,CLR,,0.00,WeatherDisplay:10.37,2013-03-08 14:58:00,
2013-03-08 09:03:00,62.6,24.2,30.33,SE,135,4.6,4.9,23,0.00,CLR,,0.00,WeatherDisplay:10.37,2013-03-08 15:03:00,
2013-03-08 09:08:00,63.0,22.4,30.33,SE,135,8.1,8.1,21,0.00,CLR,,0.00,WeatherDisplay:10.37,2013-03-08 15:08:00,
2013-03-08 09:13:00,63.5,22.8,30.33,ESE,112,8.1,9.0,21,0.00,CLR,,0.00,WeatherDisplay:10.37,2013-03-08 15:13:00,
2013-03-08 09:18:00,64.6,22.6,30.33,ESE,112,5.8,7.1,20,0.00,CLR,,0.00,WeatherDisplay:10.37,2013-03-08 15:18:00,
2013-03-08 09:23:00,65.1,20.5,30.33,SE,135,10.4,10.4,18,0.00,CLR,,0.00,WeatherDisplay:10.37,2013-03-08 15:23:00,
2013-03-08 09:28:00,65.7,21.0,30.33,ESE,112,10.4,10.4,18,0.00,CLR,,0.00,WeatherDisplay:10.37,2013-03-08 15:28:00,
2013-03-08 09:33:00,66.2,20.0,30.33,ESE,112,10.4,10.4,17,0.00,CLR,,0.00,WeatherDisplay:10.37,2013-03-08 15:33:00,
2013-03-08 09:38:00,66.0,21.2,30.33,ESE,112,8.1,8.1,18,0.00,CLR,,0.00,WeatherDisplay:10.37,2013-03-08 15:38:00,
2013-03-08 09:43:00,66.4,20.2,30.33,SE,135,9.2,9.2,17,0.00,CLR,,0.00,WeatherDisplay:10.37,2013-03-08 15:43:00,
2013-03-08 09:48:00,66.6,20.3,30.33,ESE,112,10.4,10.4,17,0.00,CLR,,0.00,WeatherDisplay:10.37,2013-03-08 15:48:00,
2013-03-08 09:53:00,66.9,20.6,30.33,SE,135,5.8,9.4,17,0.00,CLR,,0.00,WeatherDisplay:10.37,2013-03-08 15:53:00,
2013-03-08 09:59:00,67.3,20.9,30.33,ENE,68,8.7,10.5,17,0.00,CLR,,0.00,WeatherDisplay:10.37,2013-03-08 15:59:00,
2013-03-08 10:04:00,67.6,21.2,30.33,East,90,9.2,9.2,17,0.00,CLR,,0.00,WeatherDisplay:10.37,2013-03-08 16:04:00,
2013-03-08 10:09:00,67.8,21.4,30.33,ESE,112,10.4,10.4,17,0.00,CLR,,0.00,WeatherDisplay:10.37,2013-03-08 16:09:00,
2013-03-08 10:14:00,68.5,22.0,30.33,SSE,158,6.9,6.9,17,0.00,FEW,,0.00,WeatherDisplay:10.37,2013-03-08 16:14:00,
2013-03-08 10:19:00,68.9,22.2,30.33,ESE,112,8.1,8.5,17,0.00,FEW,,0.00,WeatherDisplay:10.37,2013-03-08 16:19:00,
2013-03-08 10:24:00,69.8,23.0,30.33,ESE,112,8.1,8.1,17,0.00,FEW,,0.00,WeatherDisplay:10.37,2013-03-08 16:24:00,
2013-03-08 10:29:00,68.4,21.8,30.33,ESE,112,6.9,8.5,17,0.00,FEW,,0.00,WeatherDisplay:10.37,2013-03-08 16:29:00,
2013-03-08 10:34:00,68.9,22.2,30.30,ESE,112,10.0,10.0,17,0.00,FEW,,0.00,WeatherDisplay:10.37,2013-03-08 16:34:00,
2013-03-08 10:39:00,69.6,22.8,30.30,SE,135,9.2,9.2,17,0.00,FEW,,0.00,WeatherDisplay:10.37,2013-03-08 16:39:00,
2013-03-08 10:44:00,69.4,19.7,30.30,ESE,112,9.2,9.2,15,0.00,FEW,,0.00,WeatherDisplay:10.37,2013-03-08 16:44:00,
2013-03-08 10:49:00,68.7,19.1,30.33,ESE,112,9.2,9.2,15,0.00,FEW,,0.00,WeatherDisplay:10.37,2013-03-08 16:49:00,
2013-03-08 10:54:00,67.8,18.4,30.33,ESE,112,11.5,11.5,15,0.00,FEW,,0.00,WeatherDisplay:10.37,2013-03-08 16:54:00,
2013-03-08 10:59:00,68.9,22.2,30.33,ESE,112,10.4,10.4,17,0.00,FEW,,0.00,WeatherDisplay:10.37,2013-03-08 16:59:00,
2013-03-08 11:04:00,68.9,19.3,30.33,ESE,112,5.8,7.6,15,0.00,FEW,,0.00,WeatherDisplay:10.37,2013-03-08 17:04:00,
2013-03-08 11:09:00,68.4,18.9,30.33,ESE,112,9.2,9.2,15,0.00,FEW,,0.00,WeatherDisplay:10.37,2013-03-08 17:09:00,
2013-03-08 11:14:00,68.0,18.6,30.33,ESE,112,6.2,6.2,15,0.00,CLR,,0.00,WeatherDisplay:10.37,2013-03-08 17:14:00,
2013-03-08 11:19:00,67.6,18.3,30.30,ESE,112,8.1,10.9,15,0.00,CLR,,0.00,WeatherDisplay:10.37,2013-03-08 17:19:00,
2013-03-08 11:24:00,67.8,21.4,30.30,SE,135,6.9,6.9,17,0.00,CLR,,0.00,WeatherDisplay:10.37,2013-03-08 17:24:00,
2013-03-08 11:29:00,68.0,18.6,30.30,SE,135,6.9,6.9,15,0.00,CLR,,0.00,WeatherDisplay:10.37,2013-03-08 17:29:00,
2013-03-08 11:34:00,69.4,19.7,30.30,SSW,202,9.2,9.2,15,0.00,CLR,,0.00,WeatherDisplay:10.37,2013-03-08 17:34:00,
2013-03-08 11:39:00,70.2,18.7,30.30,SSW,202,3.8,5.4,14,0.00,CLR,,0.00,WeatherDisplay:10.37,2013-03-08 17:39:00,
2013-03-08 11:44:00,70.2,18.7,30.30,ESE,112,8.1,8.5,14,0.00,CLR,,0.00,WeatherDisplay:10.37,2013-03-08 17:44:00,
2013-03-08 11:49:00,71.1,19.4,30.30,ESE,112,8.1,8.5,14,0.00,CLR,,0.00,WeatherDisplay:10.37,2013-03-08 17:49:00,
2013-03-08 11:54:00,71.8,20.0,30.30,ESE,112,8.1,8.5,14,0.00,CLR,,0.00,WeatherDisplay:10.37,2013-03-08 17:54:00,
2013-03-08 11:59:00,72.1,20.3,30.30,ESE,112,8.1,8.5,14,0.00,CLR,,0.00,WeatherDisplay:10.37,2013-03-08 17:59:00,
2013-03-08 12:04:00,72.1,20.3,30.30,ESE,112,8.1,8.5,14,0.00,CLR,,0.00,WeatherDisplay:10.37,2013-03-08 18:04:00,
2013-03-08 12:09:00,72.5,20.5,30.30,SE,135,10.2,10.2,14,0.00,CLR,,0.00,WeatherDisplay:10.37,2013-03-08 18:09:00,
2013-03-08 12:14:00,73.4,19.5,30.30,East,90,5.8,5.8,13,0.00,SCT,,0.00,WeatherDisplay:10.37,2013-03-08 18:14:00,
2013-03-08 12:19:00,73.8,19.8,30.30,ESE,112,6.9,6.9,13,0.00,SCT,,0.00,WeatherDisplay:10.37,2013-03-08 18:19:00,
2013-03-08 12:24:00,73.0,21.0,30.30,ESE,112,8.1,8.1,14,0.00,SCT,,0.00,WeatherDisplay:10.37,2013-03-08 18:24:00,
2013-03-08 12:29:00,74.3,20.2,30.30,SE,135,4.6,4.6,13,0.00,SCT,,0.00,WeatherDisplay:10.37,2013-03-08 18:29:00,
2013-03-08 12:34:00,74.1,20.1,30.27,South,180,4.6,5.6,13,0.00,SCT,,0.00,WeatherDisplay:10.37,2013-03-08 18:34:00,
2013-03-08 12:39:00,75.2,20.9,30.27,SSW,202,6.9,6.9,13,0.00,SCT,,0.00,WeatherDisplay:10.37,2013-03-08 18:39:00,
2013-03-08 12:44:00,75.0,20.8,30.27,East,90,6.9,6.9,13,0.00,SCT,,0.00,WeatherDisplay:10.37,2013-03-08 18:44:00,
2013-03-08 12:49:00,75.0,20.8,30.27,South,180,9.2,9.2,13,0.00,SCT,,0.00,WeatherDisplay:10.37,2013-03-08 18:49:00,
2013-03-08 12:54:00,74.3,20.2,30.27,ESE,112,6.9,6.9,13,0.00,SCT,,0.00,WeatherDisplay:10.37,2013-03-08 18:54:00,
2013-03-08 12:59:00,74.5,20.4,30.27,ESE,112,6.9,6.9,13,0.00,SCT,,0.00,WeatherDisplay:10.37,2013-03-08 18:59:00,
2013-03-08 13:04:00,74.8,20.7,30.27,ESE,112,3.5,3.5,13,0.00,SCT,,0.00,WeatherDisplay:10.37,2013-03-08 19:04:00,
2013-03-08 13:09:00,74.5,20.4,30.27,SE,135,6.9,6.9,13,0.00,SCT,,0.00,WeatherDisplay:10.37,2013-03-08 19:09:00,
2013-03-08 13:14:00,73.8,19.8,30.27,East,90,3.5,3.5,13,0.00,FEW,,0.00,WeatherDisplay:10.37,2013-03-08 19:14:00,
2013-03-08 13:19:00,75.2,20.9,30.27,SE,135,3.5,3.5,13,0.00,FEW,,0.00,WeatherDisplay:10.37,2013-03-08 19:19:00,
2013-03-08 13:24:00,75.0,20.8,30.27,SSE,158,6.9,6.9,13,0.00,FEW,,0.00,WeatherDisplay:10.37,2013-03-08 19:24:00,
2013-03-08 13:29:00,75.7,21.4,30.27,SSW,202,4.6,4.6,13,0.00,FEW,,0.00,WeatherDisplay:10.37,2013-03-08 19:29:00,
2013-03-08 13:34:00,76.1,21.6,30.24,SE,135,8.1,8.1,13,0.00,FEW,,0.00,WeatherDisplay:10.37,2013-03-08 19:34:00,
2013-03-08 13:39:00,75.0,20.8,30.24,SSE,158,6.9,6.9,13,0.00,FEW,,0.00,WeatherDisplay:10.37,2013-03-08 19:39:00,
2013-03-08 13:44:00,75.6,21.2,30.24,SE,135,2.3,2.3,13,0.00,FEW,,0.00,WeatherDisplay:10.37,2013-03-08 19:44:00,
2013-03-08 13:49:00,74.7,20.5,30.21,SSE,158,6.9,6.9,13,0.00,FEW,,0.00,WeatherDisplay:10.37,2013-03-08 19:49:00,
2013-03-08 13:54:00,74.5,20.4,30.21,South,180,4.6,4.6,13,0.00,FEW,,0.00,WeatherDisplay:10.37,2013-03-08 19:54:00,
2013-03-08 13:59:00,74.1,20.1,30.21,SSE,158,6.9,6.9,13,0.00,FEW,,0.00,WeatherDisplay:10.37,2013-03-08 19:59:00,
2013-03-08 14:04:00,73.6,19.7,30.21,East,90,8.1,8.1,13,0.00,FEW,,0.00,WeatherDisplay:10.37,2013-03-08 20:04:00,
2013-03-08 14:09:00,73.2,21.1,30.21,ESE,112,8.1,8.1,14,0.00,FEW,,0.00,WeatherDisplay:10.37,2013-03-08 20:09:00,
2013-03-08 14:14:00,74.3,20.2,30.21,East,90,4.6,4.6,13,0.00,CLR,,0.00,WeatherDisplay:10.37,2013-03-08 20:14:00,
2013-03-08 14:19:00,74.8,20.7,30.21,SE,135,6.9,6.9,13,0.00,CLR,,0.00,WeatherDisplay:10.37,2013-03-08 20:19:00,
2013-03-08 14:24:00,75.4,21.1,30.21,SE,135,6.9,6.9,13,0.00,CLR,,0.00,WeatherDisplay:10.37,2013-03-08 20:24:00,
2013-03-08 14:29:00,74.8,20.7,30.21,SW,225,9.2,9.2,13,0.00,CLR,,0.00,WeatherDisplay:10.37,2013-03-08 20:29:00,
2013-03-08 14:34:00,74.8,20.7,30.18,SSW,202,2.3,2.4,13,0.00,CLR,,0.00,WeatherDisplay:10.37,2013-03-08 20:34:00,
2013-03-08 14:39:00,74.1,20.1,30.18,ESE,112,8.1,8.1,13,0.00,CLR,,0.00,WeatherDisplay:10.37,2013-03-08 20:39:00,
2013-03-08 14:45:00,73.6,19.7,30.18,SW,225,6.9,6.9,13,0.00,CLR,,0.00,WeatherDisplay:10.37,2013-03-08 20:45:00,
2013-03-08 14:50:00,73.9,19.9,30.21,SSE,158,4.6,4.6,13,0.00,CLR,,0.00,WeatherDisplay:10.37,2013-03-08 20:50:00,
2013-03-08 14:55:00,73.8,19.8,30.21,SSE,158,5.8,5.8,13,0.00,CLR,,0.00,WeatherDisplay:10.37,2013-03-08 20:55:00,
2013-03-08 15:00:00,73.2,21.1,30.21,South,180,6.9,6.9,14,0.00,CLR,,0.00,WeatherDisplay:10.37,2013-03-08 21:00:00,
2013-03-08 15:05:00,72.9,20.8,30.21,SSE,158,4.6,4.6,14,0.00,CLR,,0.00,WeatherDisplay:10.37,2013-03-08 21:05:00,
2013-03-08 15:10:00,74.1,20.1,30.21,SSE,158,1.2,1.2,13,0.00,CLR,,0.00,WeatherDisplay:10.37,2013-03-08 21:10:00,
2013-03-08 15:15:00,73.8,19.8,30.21,SSE,158,10.4,10.4,13,0.00,CLR,,0.00,WeatherDisplay:10.37,2013-03-08 21:15:00,
2013-03-08 15:20:00,72.9,20.8,30.21,South,180,4.6,4.6,14,0.00,CLR,,0.00,WeatherDisplay:10.37,2013-03-08 21:20:00,
2013-03-08 15:25:00,71.8,20.0,30.21,SE,135,5.8,5.8,14,0.00,CLR,,0.00,WeatherDisplay:10.37,2013-03-08 21:25:00,
2013-03-08 15:30:00,71.4,19.7,30.21,SE,135,10.4,10.4,14,0.00,CLR,,0.00,WeatherDisplay:10.37,2013-03-08 21:30:00,
2013-03-08 15:35:00,71.2,19.5,30.18,SSE,158,6.9,6.9,14,0.00,CLR,,0.00,WeatherDisplay:10.37,2013-03-08 21:35:00,
2013-03-08 15:40:00,71.1,19.4,30.18,ESE,112,8.1,8.1,14,0.00,CLR,,0.00,WeatherDisplay:10.37,2013-03-08 21:40:00,
2013-03-08 15:45:00,70.7,19.1,30.18,SE,135,8.1,8.1,14,0.00,CLR,,0.00,WeatherDisplay:10.37,2013-03-08 21:45:00,
2013-03-08 15:50:00,70.3,18.8,30.18,SE,135,10.4,10.4,14,0.00,CLR,,0.00,WeatherDisplay:10.37,2013-03-08 21:50:00,
2013-03-08 15:55:00,69.8,18.4,30.18,SE,135,8.1,8.1,14,0.00,CLR,,0.00,WeatherDisplay:10.37,2013-03-08 21:55:00,
2013-03-08 16:00:00,69.8,18.4,30.18,SE,135,10.4,10.4,14,0.00,CLR,,0.00,WeatherDisplay:10.37,2013-03-08 22:00:00,
2013-03-08 16:05:00,71.2,19.5,30.18,SE,135,8.1,8.1,14,0.00,CLR,,0.00,WeatherDisplay:10.37,2013-03-08 22:05:00,
2013-03-08 16:10:00,71.8,20.0,30.18,ESE,112,9.2,9.2,14,0.00,CLR,,0.00,WeatherDisplay:10.37,2013-03-08 22:10:00,
2013-03-08 16:15:00,72.0,20.1,30.18,SE,135,9.2,9.2,14,0.00,CLR,,0.00,WeatherDisplay:10.37,2013-03-08 22:15:00,
2013-03-08 16:20:00,72.1,20.3,30.18,ESE,112,5.8,5.8,14,0.00,CLR,,0.00,WeatherDisplay:10.37,2013-03-08 22:20:00,
2013-03-08 16:25:00,72.1,20.3,30.18,SSE,158,8.1,8.1,14,0.00,CLR,,0.00,WeatherDisplay:10.37,2013-03-08 22:25:00,
2013-03-08 16:30:00,71.8,20.0,30.18,ESE,112,8.1,8.1,14,0.00,CLR,,0.00,WeatherDisplay:10.37,2013-03-08 22:30:00,
2013-03-08 16:35:00,72.1,20.3,30.15,SE,135,5.8,6.0,14,0.00,CLR,,0.00,WeatherDisplay:10.37,2013-03-08 22:35:00,
2013-03-08 16:40:00,71.6,19.8,30.15,SE,135,6.9,6.9,14,0.00,CLR,,0.00,WeatherDisplay:10.37,2013-03-08 22:40:00,
2013-03-08 16:45:00,71.4,19.7,30.15,ESE,112,8.1,8.1,14,0.00,CLR,,0.00,WeatherDisplay:10.37,2013-03-08 22:45:00,
2013-03-08 16:50:00,71.1,19.4,30.15,SSE,158,10.4,10.4,14,0.00,CLR,,0.00,WeatherDisplay:10.37,2013-03-08 22:50:00,
2013-03-08 16:55:00,70.7,19.1,30.15,ESE,112,8.1,8.1,14,0.00,CLR,,0.00,WeatherDisplay:10.37,2013-03-08 22:55:00,
2013-03-08 17:00:00,70.0,18.5,30.15,SE,135,10.4,10.4,14,0.00,CLR,,0.00,WeatherDisplay:10.37,2013-03-08 23:00:00,
2013-03-08 17:05:00,69.1,19.4,30.15,ESE,112,9.2,9.2,15,0.00,CLR,,0.00,WeatherDisplay:10.37,2013-03-08 23:05:00,
2013-03-08 17:10:00,68.9,19.3,30.15,ESE,112,8.1,8.1,15,0.00,CLR,,0.00,WeatherDisplay:10.37,2013-03-08 23:10:00,
2013-03-08 17:15:00,68.0,18.6,30.15,SE,135,8.1,8.1,15,0.00,CLR,,0.00,WeatherDisplay:10.37,2013-03-08 23:15:00,
2013-03-08 17:20:00,67.8,18.4,30.15,SE,135,6.9,6.9,15,0.00,CLR,,0.00,WeatherDisplay:10.37,2013-03-08 23:20:00,
2013-03-08 17:25:00,67.3,18.0,30.15,SSE,158,4.6,4.6,15,0.00,CLR,,0.00,WeatherDisplay:10.37,2013-03-08 23:25:00,
2013-03-08 17:30:00,66.6,17.4,30.15,South,180,5.8,5.8,15,0.00,CLR,,0.00,WeatherDisplay:10.37,2013-03-08 23:30:00,
2013-03-08 17:35:00,66.4,17.3,30.18,ESE,112,4.6,4.6,15,0.00,CLR,,0.00,WeatherDisplay:10.37,2013-03-08 23:35:00,
2013-03-08 17:40:00,65.7,16.7,30.18,ESE,112,5.8,5.8,15,0.00,CLR,,0.00,WeatherDisplay:10.37,2013-03-08 23:40:00,
2013-03-08 17:45:00,65.1,16.3,30.18,SE,135,6.9,6.9,15,0.00,CLR,,0.00,WeatherDisplay:10.37,2013-03-08 23:45:00,
2013-03-08 17:50:00,64.8,16.0,30.18,South,180,6.9,6.9,15,0.00,CLR,,0.00,WeatherDisplay:10.37,2013-03-08 23:50:00,
2013-03-08 17:55:00,64.4,15.7,30.18,SSE,158,2.3,2.3,15,0.00,CLR,,0.00,WeatherDisplay:10.37,2013-03-08 23:55:00,
2013-03-08 18:00:00,64.0,16.9,30.18,ESE,112,2.3,2.6,16,0.00,CLR,,0.00,WeatherDisplay:10.37,2013-03-09 00:00:00,
2013-03-08 18:05:00,63.7,16.6,30.18,SE,135,2.3,4.5,16,0.00,CLR,,0.00,WeatherDisplay:10.37,2013-03-09 00:05:00,
2013-03-08 18:10:00,63.3,16.3,30.18,SSE,158,5.8,5.8,16,0.00,CLR,,0.00,WeatherDisplay:10.37,2013-03-09 00:10:00,
2013-03-08 18:15:00,63.0,16.0,30.18,ESE,112,4.6,4.6,16,0.00,CLR,,0.00,WeatherDisplay:10.37,2013-03-09 00:15:00,
2013-03-08 18:20:00,62.6,15.7,30.18,SSE,158,2.3,0.0,16,0.00,CLR,,0.00,WeatherDisplay:10.37,2013-03-09 00:20:00,
2013-03-08 18:25:00,62.2,15.4,30.18,SSE,158,0.0,0.0,16,0.00,CLR,,0.00,WeatherDisplay:10.37,2013-03-09 00:25:00,
2013-03-08 18:30:00,62.2,15.4,30.18,ESE,112,2.3,2.3,16,0.00,CLR,,0.00,WeatherDisplay:10.37,2013-03-09 00:30:00,
2013-03-08 18:35:00,62.1,15.3,30.21,SE,135,2.3,4.3,16,0.00,CLR,,0.00,WeatherDisplay:10.37,2013-03-09 00:35:00,
2013-03-08 18:40:00,62.1,15.3,30.21,SE,135,3.5,4.9,16,0.00,CLR,,0.00,WeatherDisplay:10.37,2013-03-09 00:40:00,
2013-03-08 18:45:00,61.9,15.1,30.21,SSE,158,3.5,3.5,16,0.00,CLR,,0.00,WeatherDisplay:10.37,2013-03-09 00:45:00,
2013-03-08 18:50:00,61.3,14.7,30.21,SE,135,0.0,0.0,16,0.00,CLR,,0.00,WeatherDisplay:10.37,2013-03-09 00:50:00,
2013-03-08 18:55:00,61.2,14.5,30.21,SSE,158,2.3,2.3,16,0.00,CLR,,0.00,WeatherDisplay:10.37,2013-03-09 00:55:00,
2013-03-08 19:00:00,60.8,14.3,30.21,SE,135,2.3,2.6,16,0.00,CLR,,0.00,WeatherDisplay:10.37,2013-03-09 01:00:00,
2013-03-08 19:05:00,60.6,15.5,30.21,SE,135,2.3,2.6,17,0.00,CLR,,0.00,WeatherDisplay:10.37,2013-03-09 01:05:00,
2013-03-08 19:10:00,60.3,15.2,30.21,SSW,202,0.0,0.0,17,0.00,CLR,,0.00,WeatherDisplay:10.37,2013-03-09 01:10:00,
2013-03-08 19:16:00,59.7,14.8,30.21,South,180,0.0,0.0,17,0.00,CLR,,0.00,WeatherDisplay:10.37,2013-03-09 01:16:00,
2013-03-08 19:21:00,59.4,14.5,30.21,SSE,158,0.0,0.0,17,0.00,CLR,,0.00,WeatherDisplay:10.37,2013-03-09 01:21:00,
2013-03-08 19:26:00,58.6,13.9,30.21,SSE,158,0.0,0.0,17,0.00,CLR,,0.00,WeatherDisplay:10.37,2013-03-09 01:26:00,
2013-03-08 19:31:00,58.3,13.6,30.21,South,180,0.0,0.0,17,0.00,CLR,,0.00,WeatherDisplay:10.37,2013-03-09 01:31:00,
2013-03-08 19:36:00,57.7,13.2,30.21,SSE,158,1.2,1.2,17,0.00,CLR,,0.00,WeatherDisplay:10.37,2013-03-09 01:36:00,
2013-03-08 19:41:00,57.2,12.7,30.21,SSE,158,0.0,0.0,17,0.00,CLR,,0.00,WeatherDisplay:10.37,2013-03-09 01:41:00,
2013-03-08 19:46:00,57.4,12.9,30.21,ESE,112,0.0,0.0,17,0.00,CLR,,0.00,WeatherDisplay:10.37,2013-03-09 01:46:00,
2013-03-08 19:51:00,57.7,13.2,30.21,ESE,112,0.0,0.0,17,0.00,CLR,,0.00,WeatherDisplay:10.37,2013-03-09 01:51:00,
2013-03-08 19:56:00,57.9,13.3,30.21,ESE,112,0.0,0.0,17,0.00,CLR,,0.00,WeatherDisplay:10.37,2013-03-09 01:56:00,
2013-03-08 20:01:00,57.9,13.3,30.18,ESE,112,0.0,0.0,17,0.00,CLR,,0.00,WeatherDisplay:10.37,2013-03-09 02:01:00,
2013-03-08 20:06:00,57.9,13.3,30.18,ESE,112,0.0,0.0,17,0.00,CLR,,0.00,WeatherDisplay:10.37,2013-03-09 02:06:00,
2013-03-08 20:11:00,57.6,13.0,30.18,ESE,112,0.0,0.0,17,0.00,CLR,,0.00,WeatherDisplay:10.37,2013-03-09 02:11:00,
2013-03-08 20:16:00,57.6,13.0,30.21,SE,135,0.0,0.0,17,0.00,CLR,,0.00,WeatherDisplay:10.37,2013-03-09 02:16:00,
2013-03-08 20:21:00,57.9,13.3,30.21,SE,135,0.0,0.0,17,0.00,CLR,,0.00,WeatherDisplay:10.37,2013-03-09 02:21:00,
2013-03-08 20:26:00,58.3,13.6,30.21,SE,135,0.0,0.0,17,0.00,CLR,,0.00,WeatherDisplay:10.37,2013-03-09 02:26:00,
2013-03-08 20:31:00,58.3,13.6,30.21,SE,135,0.0,0.0,17,0.00,CLR,,0.00,WeatherDisplay:10.37,2013-03-09 02:31:00,
2013-03-08 20:36:00,58.1,13.4,30.21,SE,135,0.0,0.0,17,0.00,CLR,,0.00,WeatherDisplay:10.37,2013-03-09 02:36:00,
2013-03-08 20:41:00,57.7,13.2,30.21,SE,135,0.0,0.0,17,0.00,CLR,,0.00,WeatherDisplay:10.37,2013-03-09 02:41:00,
2013-03-08 20:46:00,57.6,13.0,30.21,South,180,0.0,0.0,17,0.00,CLR,,0.00,WeatherDisplay:10.37,2013-03-09 02:46:00,
2013-03-08 20:51:00,57.4,12.9,30.21,South,180,0.0,0.0,17,0.00,CLR,,0.00,WeatherDisplay:10.37,2013-03-09 02:51:00,
2013-03-08 20:56:00,57.6,13.0,30.21,South,180,0.0,0.0,17,0.00,CLR,,0.00,WeatherDisplay:10.37,2013-03-09 02:56:00,
2013-03-08 21:01:00,57.7,13.2,30.18,South,180,0.0,0.0,17,0.00,CLR,,0.00,WeatherDisplay:10.37,2013-03-09 03:01:00,
2013-03-08 21:06:00,58.1,13.4,30.18,ESE,112,5.8,5.8,17,0.00,CLR,,0.00,WeatherDisplay:10.37,2013-03-09 03:06:00,
2013-03-08 21:11:00,58.3,13.6,30.18,SE,135,6.0,6.0,17,0.00,CLR,,0.00,WeatherDisplay:10.37,2013-03-09 03:11:00,
2013-03-08 21:16:00,58.3,13.6,30.18,SE,135,6.0,6.0,17,0.00,CLR,,0.00,WeatherDisplay:10.37,2013-03-09 03:16:00,
2013-03-08 21:21:00,58.5,13.7,30.18,SE,135,6.0,6.0,17,0.00,CLR,,0.00,WeatherDisplay:10.37,2013-03-09 03:21:00,
2013-03-08 21:26:00,58.6,13.9,30.18,SE,135,5.8,5.8,17,0.00,CLR,,0.00,WeatherDisplay:10.37,2013-03-09 03:26:00,
2013-03-08 21:31:00,58.8,14.0,30.15,SE,135,5.8,5.8,17,0.00,CLR,,0.00,WeatherDisplay:10.37,2013-03-09 03:31:00,
2013-03-08 21:36:00,58.8,14.0,30.15,SE,135,5.8,5.8,17,0.00,CLR,,0.00,WeatherDisplay:10.37,2013-03-09 03:36:00,
2013-03-08 21:41:00,58.8,14.0,30.15,SE,135,5.8,5.8,17,0.00,CLR,,0.00,WeatherDisplay:10.37,2013-03-09 03:41:00,
2013-03-08 21:46:00,59.0,16.7,30.15,SE,135,5.8,5.8,19,0.00,CLR,,0.00,WeatherDisplay:10.37,2013-03-09 03:46:00,
2013-03-08 21:51:00,59.0,16.7,30.15,SE,135,5.8,5.8,19,0.00,CLR,,0.00,WeatherDisplay:10.37,2013-03-09 03:51:00,
2013-03-08 21:56:00,58.8,16.6,30.15,SE,135,5.8,5.8,19,0.00,CLR,,0.00,WeatherDisplay:10.37,2013-03-09 03:56:00,
2013-03-08 22:01:00,58.8,16.6,30.15,SE,135,5.8,5.8,19,0.00,CLR,,0.00,WeatherDisplay:10.37,2013-03-09 04:01:00,
2013-03-08 22:06:00,58.8,16.6,30.15,SE,135,5.8,5.8,19,0.00,CLR,,0.00,WeatherDisplay:10.37,2013-03-09 04:06:00,
2013-03-08 22:11:00,58.8,16.6,30.15,SE,135,5.8,5.8,19,0.00,CLR,,0.00,WeatherDisplay:10.37,2013-03-09 04:11:00,
2013-03-08 22:16:00,58.6,16.4,30.15,SE,135,5.8,5.8,19,0.00,CLR,,0.00,WeatherDisplay:10.37,2013-03-09 04:16:00,
2013-03-08 22:21:00,59.0,16.7,30.15,SE,135,5.8,5.8,19,0.00,CLR,,0.00,WeatherDisplay:10.37,2013-03-09 04:21:00,
2013-03-08 22:26:00,59.0,14.2,30.15,SE,135,5.8,5.8,17,0.00,CLR,,0.00,WeatherDisplay:10.37,2013-03-09 04:26:00,
2013-03-08 22:31:00,59.2,14.3,30.15,SE,135,5.8,5.8,17,0.00,CLR,,0.00,WeatherDisplay:10.37,2013-03-09 04:31:00,
2013-03-08 22:36:00,59.4,14.5,30.15,SE,135,5.8,5.8,17,0.00,CLR,,0.00,WeatherDisplay:10.37,2013-03-09 04:36:00,
2013-03-08 22:41:00,59.4,14.5,30.15,SE,135,5.8,5.8,17,0.00,CLR,,0.00,WeatherDisplay:10.37,2013-03-09 04:41:00,
2013-03-08 22:46:00,59.4,14.5,30.15,SE,135,5.8,5.8,17,0.00,CLR,,0.00,WeatherDisplay:10.37,2013-03-09 04:46:00,
2013-03-08 22:51:00,59.4,14.5,30.15,SE,135,5.8,5.8,17,0.00,CLR,,0.00,WeatherDisplay:10.37,2013-03-09 04:51:00,
2013-03-08 22:56:00,59.4,14.5,30.15,SE,135,5.8,5.8,17,0.00,CLR,,0.00,WeatherDisplay:10.37,2013-03-09 04:56:00,
2013-03-08 23:00:00,59.4,14.5,30.15,SE,135,5.8,5.8,17,0.00,CLR,,0.00,WeatherDisplay:10.37,2013-03-09 05:00:00,
2013-03-08 23:05:00,59.4,14.5,30.15,SE,135,6.0,6.0,17,0.00,CLR,,0.00,WeatherDisplay:10.37,2013-03-09 05:05:00,
2013-03-08 23:10:00,59.4,14.5,30.15,SE,135,6.0,6.0,17,0.00,CLR,,0.00,WeatherDisplay:10.37,2013-03-09 05:10:00,
2013-03-08 23:15:00,59.4,14.5,30.15,SE,135,5.8,5.8,17,0.00,CLR,,0.00,WeatherDisplay:10.37,2013-03-09 05:15:00,
2013-03-08 23:20:00,59.4,14.5,30.15,SE,135,5.8,5.8,17,0.00,CLR,,0.00,WeatherDisplay:10.37,2013-03-09 05:20:00,
2013-03-08 23:25:00,59.4,14.5,30.15,SE,135,5.8,5.8,17,0.00,CLR,,0.00,WeatherDisplay:10.37,2013-03-09 05:25:00,
2013-03-08 23:30:00,59.4,14.5,30.15,SE,135,5.8,5.8,17,0.00,CLR,,0.00,WeatherDisplay:10.37,2013-03-09 05:30:00,
2013-03-08 23:35:00,57.4,12.9,30.12,East,90,0.0,1.4,17,0.00,CLR,,0.00,WeatherDisplay:10.37,2013-03-09 05:35:00,
2013-03-08 23:40:00,57.4,12.9,30.12,East,90,0.0,1.4,17,0.00,CLR,,0.00,WeatherDisplay:10.37,2013-03-09 05:40:00,
2013-03-08 23:45:00,57.0,12.6,30.12,SSE,158,0.0,0.0,17,0.00,CLR,,0.00,WeatherDisplay:10.37,2013-03-09 05:45:00,
2013-03-08 23:50:00,56.7,12.3,30.15,SSE,158,0.0,0.0,17,0.00,CLR,,0.00,WeatherDisplay:10.37,2013-03-09 05:50:00,
2013-03-08 23:55:00,56.3,12.0,30.15,ESE,112,0.0,0.0,17,0.00,CLR,,0.00,WeatherDisplay:10.37,2013-03-09 05:55:00,